Location: Manchester NH
(43.0000°N, 71.5000°W)
Time: 15:05:23
(UTC-05:00)

Tiangong - Visible Passes

Search period start: 24 January 2022 00:00
Search period end: 03 February 2022 00:00
Orbit: 383 x 386 km, 41.5° (Epoch: 23 January)

Date Brightness Start Highest point End Pass type
(mag) Time Alt. Az. Time Alt. Az. Time Alt. Az.
26 Jan 3.6 18:57:11 10° SW 18:58:13 17° SSW 18:58:13 17° SSW visible
27 Jan 3.1 17:58:09 10° SSW 18:00:17 17° SSE 18:01:29 14° SE visible
27 Jan 4.6 19:33:37 10° WSW 19:33:42 11° WSW 19:33:42 11° WSW visible
28 Jan 2.0 18:34:02 10° SW 18:36:53 36° SSE 18:36:53 36° SSE visible
29 Jan 2.6 17:34:37 10° SW 17:37:19 25° SSE 17:40:00 10° E visible
29 Jan 3.3 19:10:43 10° WSW 19:12:13 25° WSW 19:12:13 25° WSW visible
30 Jan 1.5 18:10:59 10° WSW 18:14:04 50° SSE 18:15:18 30° ESE visible
31 Jan 1.5 18:47:47 10° W 18:50:32 58° SW 18:50:32 58° SW visible
01 Feb 1.3 17:47:56 10° WSW 17:51:04 62° S 17:53:33 15° E visible
01 Feb 3.9 19:24:40 10° W 19:25:45 19° W 19:25:45 19° W visible
02 Feb 1.2 18:24:45 10° W 18:27:54 64° S 18:28:46 41° ESE visible
